Location: Peterborough
(44.3091°N, 78.3197°W)
Time: 08:58:19
(UTC-05:00)

Vanguard 3 - All Passes

Search period start: 22 February 2024 00:00
Search period end: 03 March 2024 00:00
Orbit: 508 x 3239 km, 33.3° (Epoch: 22 February)

Date Brightness Start Highest point End Pass type
(mag) Time Alt. Az. Time Alt. Az. Time Alt. Az.
22 Feb - 01:53:49 10° W 02:07:51 43° SSW 02:16:23 10° SE night (unlit)
22 Feb - 04:12:14 10° W 04:18:28 17° SW 04:23:11 10° S visible
22 Feb - 18:00:36 10° SSE 18:08:02 13° SE 18:15:30 10° ESE visible
22 Feb - 20:04:49 10° SSW 20:21:12 35° SSE 20:35:40 10° E visible
22 Feb - 22:17:14 10° WSW 22:35:43 52° S 22:49:05 10° E visible
23 Feb - 00:33:05 10° W 00:49:52 52° S 01:00:20 10° ESE visible
23 Feb - 02:50:27 10° W 03:01:54 30° SW 03:09:18 10° SSE night (unlit)
23 Feb - 18:48:38 10° S 19:02:20 25° SE 19:15:46 10° E visible
23 Feb - 20:58:17 10° SW 21:16:21 46° SSE 21:31:15 10° E visible
23 Feb - 23:12:40 10° WSW 23:31:06 56° S 23:43:36 10° ESE visible
24 Feb - 01:29:23 10° W 01:44:31 43° SSW 01:53:57 10° SE visible
24 Feb - 03:48:12 10° W 03:55:20 17° SW 04:00:42 10° S visible
24 Feb - 17:35:25 10° SSE 17:44:01 15° SE 17:52:55 10° ESE daylight
24 Feb - 19:40:34 10° SSW 19:57:03 37° SSE 20:12:32 10° E visible
24 Feb - 21:52:55 10° WSW 22:11:46 54° S 22:26:15 10° E visible
25 Feb - 00:08:38 10° W 00:26:16 53° SSW 00:37:45 10° ESE visible
25 Feb - 02:26:07 10° W 02:38:36 31° SW 02:46:48 10° SSE night (unlit)
25 Feb - 18:24:23 10° S 18:38:10 27° SE 18:52:28 10° E visible
25 Feb - 20:34:08 10° SW 20:52:12 48° SSE 21:08:09 10° E visible
25 Feb - 22:48:20 10° WSW 23:07:15 57° S 23:20:51 10° ESE visible
26 Feb - 01:04:57 10° W 01:21:01 44° SSW 01:31:23 10° SE visible
26 Feb - 03:24:02 10° W 03:32:02 18° SW 03:38:05 10° S night (unlit)
26 Feb - 17:10:48 10° SSE 17:19:57 16° SE 17:29:49 10° E daylight
26 Feb - 19:16:32 10° SSW 19:32:50 39° SSE 19:49:11 10° E visible
26 Feb - 21:28:46 10° WSW 21:47:41 56° S 22:03:14 10° E visible
26 Feb - 23:44:14 10° W 00:02:31 54° SSW 00:15:03 10° ESE visible
27 Feb - 02:01:44 10° W 02:15:08 31° SW 02:24:11 10° SSE visible
27 Feb - 18:00:24 10° S 18:13:59 29° SE 18:28:55 10° E visible
27 Feb - 20:10:10 10° SW 20:27:59 50° SSE 20:44:52 10° E visible
27 Feb - 22:24:07 10° WSW 22:43:15 58° S 22:57:56 10° ESE visible
28 Feb - 00:40:31 10° W 00:57:20 44° SSW 01:08:41 10° SE visible
28 Feb - 02:59:50 10° W 03:08:36 18° SW 03:15:18 10° S night (unlit)
28 Feb - 16:46:35 10° SSE 16:55:54 17° SE 17:06:21 10° E daylight
28 Feb - 18:52:43 10° SSW 19:08:34 41° SSE 19:25:35 10° E visible
28 Feb - 21:04:47 10° WSW 21:23:30 57° S 21:40:03 10° E visible
28 Feb - 23:19:56 10° W 23:38:36 54° SSW 23:52:11 10° ESE visible
29 Feb - 01:37:20 10° W 01:51:30 31° SW 02:01:25 10° SSE visible
29 Feb - 17:36:40 10° SSW 17:49:49 30° SE 18:05:07 10° E daylight
29 Feb - 19:46:24 10° SW 20:03:42 52° SSE 20:21:22 10° E visible
29 Feb - 22:00:02 10° WSW 22:19:07 59° S 22:34:51 10° ESE visible
01 Mar - 00:16:09 10° W 00:33:29 44° SSW 00:45:49 10° SE visible
01 Mar - 02:35:37 10° W 02:45:01 18° SW 02:52:21 10° SSW night (unlit)
01 Mar - 16:22:43 10° SSE 16:31:52 18° SE 16:42:34 10° E daylight
01 Mar - 18:29:08 10° SW 18:44:19 43° SSE 19:01:49 10° E visible
01 Mar - 20:40:57 10° WSW 20:59:14 58° S 21:16:41 10° E visible
01 Mar - 22:55:45 10° W 23:14:33 54° SSW 23:29:10 10° SE visible
02 Mar - 01:12:59 10° W 01:27:43 31° SW 01:38:28 10° SSE visible
02 Mar - 17:13:09 10° SSW 17:25:40 31° SE 17:41:08 10° E daylight
02 Mar - 19:22:49 10° SW 19:39:25 53° SSE 19:57:42 10° E visible
02 Mar - 21:36:06 10° WSW 21:54:54 59° S 22:11:35 10° ESE visible
